| time (UTC) | temp F | wind direction | speed MPH | gust MPH | rain 1hr in | rain 24hr in | rain mn in | humidity % | barometer mb |
| 20260905120509 | 79 | 260 | 0.0 | 0.0 | 0.00 | 0.00 | 0.00 | 99 | 1015.8 |
| 20260905120004 | 79 | 238 | 0.0 | 0.0 | 0.00 | 0.00 | 0.00 | 99 | 1015.6 |
| 20260905115503 | 79 | 238 | 0.0 | 0.0 | 0.00 | 0.00 | 0.00 | 99 | 1015.5 |
| 20260905114958 | 79 | 238 | 0.0 | 0.0 | 0.00 | 0.00 | 0.00 | 99 | 1015.5 |
| 20260905114458 | 79 | 238 | 0.0 | 0.0 | 0.00 | 0.00 | 0.00 | 99 | 1015.4 |
| 20260905113956 | 79 | 238 | 0.0 | 0.0 | 0.00 | 0.00 | 0.00 | 99 | 1015.5 |
| 20260905113452 | 79 | 236 | 0.0 | 0.0 | 0.00 | 0.00 | 0.00 | 99 | 1015.4 |
| 20260905112947 | 79 | 237 | 0.0 | 0.0 | 0.00 | 0.00 | 0.00 | 99 | 1015.4 |
| 20260905112442 | 79 | 237 | 0.0 | 0.0 | 0.00 | 0.00 | 0.00 | 99 | 1015.1 |
| 20260905111938 | 79 | 237 | 0.0 | 0.0 | 0.00 | 0.00 | 0.00 | 99 | 1015.1 |
| 20260905111438 | 78 | 237 | 0.0 | 0.0 | 0.00 | 0.00 | 0.00 | 99 | 1015.1 |
| 20260905110932 | 78 | 237 | 0.0 | 0.0 | 0.00 | 0.00 | 0.00 | 99 | 1014.9 |
| 20260905110425 | 78 | 237 | 0.0 | 0.0 | 0.00 | 0.00 | 0.00 | 99 | 1015.2 |
| 20260905105920 | 78 | 237 | 0.0 | 0.0 | 0.00 | 0.00 | 0.00 | 99 | 1014.9 |
| 20260905105420 | 78 | 237 | 0.0 | 0.0 | 0.00 | 0.00 | 0.00 | 99 | 1014.8 |
| 20260905104919 | 78 | 237 | 0.0 | 0.0 | 0.00 | 0.00 | 0.00 | 99 | 1014.8 |
| 20260905104416 | 78 | 237 | 0.0 | 0.0 | 0.00 | 0.00 | 0.00 | 99 | 1014.9 |
| 20260905103910 | 78 | 237 | 0.0 | 0.0 | 0.00 | 0.00 | 0.00 | 99 | 1014.6 |
| 20260905103405 | 78 | 237 | 0.0 | 0.0 | 0.00 | 0.00 | 0.00 | 99 | 1014.6 |
| 20260905102901 | 79 | 237 | 0.0 | 0.0 | 0.00 | 0.00 | 0.00 | 99 | 1014.7 |
| 20260905102357 | 78 | 237 | 0.0 | 0.0 | 0.00 | 0.00 | 0.00 | 99 | 1014.7 |
| 20260905101852 | 78 | 237 | 0.0 | 0.0 | 0.00 | 0.00 | 0.00 | 99 | 1014.8 |
| 20260905101350 | 78 | 237 | 0.0 | 0.0 | 0.00 | 0.00 | 0.00 | 99 | 1014.9 |
| 20260905100845 | 78 | 237 | 0.0 | 0.0 | 0.00 | 0.00 | 0.00 | 99 | 1014.8 |
| 20260905100342 | 78 | 237 | 0.0 | 0.0 | 0.00 | 0.00 | 0.00 | 99 | 1015.0 |
| 20260905095840 | 79 | 237 | 0.0 | 0.0 | 0.00 | 0.00 | 0.00 | 99 | 1015.0 |
| 20260905095335 | 78 | 237 | 0.0 | 0.0 | 0.00 | 0.00 | 0.00 | 99 | 1014.7 |
| 20260905094829 | 78 | 237 | 0.0 | 0.0 | 0.00 | 0.00 | 0.00 | 99 | 1014.8 |
| 20260905094325 | 78 | 237 | 0.0 | 0.0 | 0.00 | 0.00 | 0.00 | 99 | 1014.9 |
| 20260905093824 | 78 | 237 | 0.0 | 0.0 | 0.00 | 0.00 | 0.00 | 99 | 1015.0 |
| 20260905093320 | 78 | 237 | 0.0 | 0.0 | 0.00 | 0.00 | 0.00 | 99 | 1014.7 |
| 20260905092816 | 78 | 237 | 0.0 | 0.0 | 0.00 | 0.00 | 0.00 | 99 | 1014.7 |
| 20260905092315 | 78 | 237 | 0.0 | 0.0 | 0.00 | 0.00 | 0.00 | 99 | 1014.9 |
| 20260905091805 | 78 | 237 | 0.0 | 0.0 | 0.00 | 0.00 | 0.00 | 99 | 1014.6 |
| 20260905091304 | 79 | 237 | 0.0 | 0.0 | 0.00 | 0.00 | 0.00 | 99 | 1014.7 |
| 20260905090803 | 79 | 237 | 0.0 | 0.0 | 0.00 | 0.00 | 0.00 | 99 | 1014.6 |
| 20260905090259 | 79 | 237 | 0.0 | 0.0 | 0.00 | 0.00 | 0.00 | 99 | 1014.7 |
| 20260905085759 | 79 | 237 | 0.0 | 0.0 | 0.00 | 0.00 | 0.00 | 99 | 1014.7 |
| 20260905085258 | 78 | 237 | 0.0 | 0.0 | 0.00 | 0.00 | 0.00 | 99 | 1014.8 |
| 20260905084753 | 79 | 237 | 0.0 | 0.0 | 0.00 | 0.00 | 0.00 | 99 | 1014.8 |
| 20260905084248 | 79 | 237 | 0.0 | 0.0 | 0.00 | 0.00 | 0.00 | 99 | 1014.6 |
| 20260905083742 | 78 | 236 | 0.0 | 0.0 | 0.00 | 0.00 | 0.00 | 99 | 1014.7 |
| 20260905083238 | 79 | 237 | 0.0 | 0.0 | 0.00 | 0.00 | 0.00 | 99 | 1014.9 |
| 20260905082734 | 79 | 236 | 0.0 | 0.0 | 0.00 | 0.00 | 0.00 | 99 | 1014.8 |
| 20260905082230 | 79 | 237 | 0.0 | 0.0 | 0.00 | 0.00 | 0.00 | 99 | 1014.8 |
| 20260905081729 | 79 | 237 | 0.0 | 0.0 | 0.00 | 0.00 | 0.00 | 99 | 1014.5 |
| 20260905081224 | 79 | 236 | 0.0 | 0.0 | 0.00 | 0.00 | 0.00 | 99 | 1014.6 |
| 20260905080719 | 79 | 236 | 0.0 | 0.0 | 0.00 | 0.00 | 0.00 | 99 | 1014.7 |
| 20260905080219 | 79 | 236 | 0.0 | 0.0 | 0.00 | 0.00 | 0.00 | 99 | 1014.5 |
| 20260905075718 | 79 | 236 | 0.0 | 0.0 | 0.00 | 0.00 | 0.00 | 99 | 1014.8 |
| 20260905075217 | 79 | 236 | 0.0 | 0.0 | 0.00 | 0.00 | 0.00 | 99 | 1014.9 |
| 20260905074716 | 79 | 236 | 0.0 | 0.0 | 0.00 | 0.00 | 0.00 | 99 | 1014.9 |
| 20260905074212 | 79 | 236 | 0.0 | 0.0 | 0.00 | 0.00 | 0.00 | 99 | 1014.6 |
| 20260905073708 | 79 | 236 | 0.0 | 0.0 | 0.00 | 0.00 | 0.00 | 99 | 1014.8 |
| 20260905073203 | 79 | 236 | 0.0 | 0.0 | 0.00 | 0.00 | 0.00 | 99 | 1014.8 |
| 20260905072702 | 79 | 236 | 0.0 | 0.0 | 0.00 | 0.00 | 0.00 | 99 | 1014.8 |
| 20260905072158 | 79 | 236 | 0.0 | 0.0 | 0.00 | 0.00 | 0.00 | 99 | 1014.8 |
| 20260905071654 | 79 | 236 | 0.0 | 0.0 | 0.00 | 0.00 | 0.00 | 99 | 1014.6 |
| 20260905071150 | 79 | 236 | 0.0 | 0.0 | 0.00 | 0.00 | 0.00 | 99 | 1014.5 |
| 20260905070644 | 79 | 236 | 0.0 | 0.0 | 0.00 | 0.00 | 0.00 | 99 | 1014.8 |
| 20260905070141 | 79 | 238 | 0.0 | 0.0 | 0.00 | 0.00 | 0.00 | 99 | 1014.8 |
| 20260905065639 | 79 | 238 | 0.0 | 0.0 | 0.00 | 0.00 | 0.00 | 99 | 1014.8 |
| 20260905065133 | 80 | 238 | 0.0 | 0.0 | 0.00 | 0.00 | 0.00 | 99 | 1015.0 |
| 20260905064629 | 79 | 233 | 0.0 | 0.0 | 0.00 | 0.00 | 0.00 | 99 | 1014.9 |
| 20260905064124 | 79 | 230 | 0.0 | 0.0 | 0.00 | 0.00 | 0.00 | 99 | 1015.0 |
| 20260905063622 | 80 | 237 | 0.0 | 0.0 | 0.00 | 0.00 | 0.00 | 99 | 1015.1 |
| 20260905063119 | 80 | 236 | 0.0 | 0.0 | 0.00 | 0.00 | 0.00 | 99 | 1015.1 |
| 20260905062615 | 80 | 238 | 0.0 | 0.0 | 0.00 | 0.00 | 0.00 | 99 | 1015.0 |
| 20260905062114 | 80 | 238 | 0.0 | 0.0 | 0.00 | 0.00 | 0.00 | 99 | 1015.1 |
| 20260905061608 | 80 | 238 | 0.0 | 0.0 | 0.00 | 0.00 | 0.00 | 99 | 1015.2 |
| 20260905061103 | 80 | 238 | 0.0 | 0.0 | 0.00 | 0.00 | 0.00 | 99 | 1015.5 |
| 20260905060559 | 80 | 238 | 0.0 | 0.0 | 0.00 | 0.00 | 0.00 | 99 | 1015.5 |
| 20260905060054 | 80 | 236 | 0.0 | 0.0 | 0.00 | 0.00 | 0.00 | 99 | 1015.3 |
| 20260905055553 | 80 | 236 | 0.0 | 0.0 | 0.00 | 0.00 | 0.00 | 99 | 1015.5 |
| 20260905055048 | 80 | 238 | 0.0 | 0.0 | 0.00 | 0.00 | 0.00 | 99 | 1015.6 |
| 20260905054544 | 80 | 238 | 0.0 | 0.0 | 0.00 | 0.00 | 0.00 | 99 | 1015.5 |
| 20260905054039 | 80 | 238 | 0.0 | 0.0 | 0.00 | 0.00 | 0.00 | 99 | 1015.9 |
| 20260905053538 | 80 | 238 | 0.0 | 0.0 | 0.00 | 0.00 | 0.00 | 99 | 1015.8 |
| 20260905053034 | 80 | 196 | 0.0 | 0.0 | 0.00 | 0.00 | 0.00 | 99 | 1015.9 |
| 20260905052533 | 80 | 238 | 0.0 | 0.0 | 0.00 | 0.00 | 0.00 | 99 | 1016.0 |
| 20260905052028 | 80 | 238 | 0.0 | 0.0 | 0.00 | 0.00 | 0.00 | 99 | 1015.9 |
| 20260905051524 | 80 | 238 | 0.0 | 0.0 | 0.00 | 0.00 | 0.00 | 99 | 1016.3 |
| 20260905051021 | 80 | 238 | 0.0 | 0.0 | 0.00 | 0.00 | 0.00 | 99 | 1016.3 |
| 20260905050516 | 80 | 238 | 0.0 | 0.0 | 0.00 | 0.00 | 0.00 | 99 | 1016.1 |
| 20260905050013 | 80 | 238 | 0.0 | 0.0 | 0.00 | 0.00 | 0.00 | 99 | 1016.2 |
| 20260905045507 | 80 | 238 | 0.0 | 0.0 | 0.00 | 0.00 | 0.00 | 99 | 1016.3 |
| 20260905045002 | 80 | 271 | 0.0 | 0.0 | 0.00 | 0.00 | 0.00 | 99 | 1016.3 |
| 20260905044457 | 80 | 271 | 0.0 | 0.0 | 0.00 | 0.00 | 0.00 | 99 | 1016.5 |
| 20260905043957 | 80 | 271 | 0.0 | 0.0 | 0.00 | 0.00 | 0.00 | 99 | 1016.5 |
| 20260905043456 | 81 | 271 | 0.0 | 0.0 | 0.00 | 0.00 | 0.00 | 99 | 1016.2 |
| 20260905042951 | 81 | 271 | 0.0 | 0.0 | 0.00 | 0.00 | 0.00 | 99 | 1016.4 |
| 20260905042450 | 81 | 271 | 0.0 | 0.0 | 0.00 | 0.00 | 0.00 | 99 | 1016.5 |
| 20260905041946 | 81 | 271 | 0.0 | 0.0 | 0.00 | 0.00 | 0.00 | 99 | 1016.5 |
| 20260905041442 | 81 | 270 | 0.0 | 0.0 | 0.00 | 0.00 | 0.00 | 99 | 1016.6 |
| 20260905040936 | 81 | 270 | 0.0 | 0.0 | 0.00 | 0.00 | 0.00 | 99 | 1016.5 |
| 20260905040436 | 81 | 270 | 0.0 | 0.0 | 0.00 | 0.00 | 0.00 | 99 | 1016.4 |
| 20260905035935 | 81 | 270 | 0.0 | 0.0 | 0.00 | 0.05 | 0.05 | 99 | 1016.5 |
| 20260905035431 | 81 | 268 | 0.0 | 0.0 | 0.00 | 0.05 | 0.05 | 99 | 1016.6 |
| 20260905034928 | 81 | 268 | 0.0 | 0.0 | 0.00 | 0.05 | 0.05 | 99 | 1016.7 |
| 20260905034423 | 81 | 268 | 0.0 | 0.0 | 0.00 | 0.05 | 0.05 | 99 | 1016.3 |
| 20260905033922 | 81 | 268 | 0.0 | 0.0 | 0.00 | 0.05 | 0.05 | 99 | 1016.6 |
| 20260905033417 | 81 | 268 | 0.0 | 0.0 | 0.00 | 0.05 | 0.05 | 99 | 1016.5 |
| 20260905032916 | 81 | 268 | 0.0 | 0.0 | 0.00 | 0.05 | 0.05 | 99 | 1016.6 |
| 20260905032412 | 81 | 268 | 0.0 | 0.0 | 0.00 | 0.05 | 0.05 | 99 | 1016.4 |
| 20260905031906 | 81 | 268 | 0.0 | 0.0 | 0.00 | 0.05 | 0.05 | 99 | 1016.3 |
| 20260905031357 | 81 | 268 | 0.0 | 0.0 | 0.00 | 0.05 | 0.05 | 99 | 1016.4 |
| 20260905030852 | 81 | 268 | 0.0 | 0.0 | 0.00 | 0.05 | 0.05 | 99 | 1016.6 |
| 20260905030348 | 81 | 268 | 0.0 | 0.0 | 0.00 | 0.05 | 0.05 | 99 | 1016.5 |
| 20260905025846 | 81 | 268 | 0.0 | 0.0 | 0.00 | 0.05 | 0.05 | 99 | 1016.4 |
| 20260905025342 | 81 | 268 | 0.0 | 0.0 | 0.00 | 0.05 | 0.05 | 99 | 1016.4 |
| 20260905024839 | 81 | 268 | 0.0 | 0.0 | 0.00 | 0.05 | 0.05 | 99 | 1016.3 |
| 20260905024333 | 81 | 268 | 0.0 | 0.0 | 0.00 | 0.05 | 0.05 | 99 | 1016.3 |
| 20260905023828 | 81 | 268 | 0.0 | 0.0 | 0.00 | 0.05 | 0.05 | 99 | 1016.2 |
| 20260905023324 | 81 | 268 | 0.0 | 0.0 | 0.00 | 0.05 | 0.05 | 99 | 1016.2 |
| 20260905022823 | 81 | 268 | 0.0 | 0.0 | 0.00 | 0.05 | 0.05 | 99 | 1016.3 |
| 20260905022318 | 81 | 268 | 0.0 | 0.0 | 0.00 | 0.05 | 0.05 | 99 | 1016.3 |
| 20260905021818 | 81 | 268 | 0.0 | 0.0 | 0.00 | 0.05 | 0.05 | 99 | 1016.2 |
| 20260905021313 | 81 | 268 | 0.0 | 0.0 | 0.00 | 0.05 | 0.05 | 99 | 1016.3 |
| 20260905020808 | 81 | 264 | 0.0 | 0.0 | 0.00 | 0.05 | 0.05 | 99 | 1016.1 |
| 20260905020303 | 81 | 264 | 0.0 | 0.0 | 0.00 | 0.05 | 0.05 | 99 | 1016.1 |
| 20260905015802 | 81 | 264 | 0.0 | 0.0 | 0.00 | 0.05 | 0.05 | 99 | 1016.2 |
| 20260905015256 | 81 | 264 | 0.0 | 0.0 | 0.00 | 0.05 | 0.05 | 99 | 1016.0 |
| 20260905014755 | 81 | 264 | 0.0 | 0.0 | 0.00 | 0.05 | 0.05 | 99 | 1016.1 |
| 20260905014251 | 81 | 264 | 0.0 | 0.0 | 0.00 | 0.05 | 0.05 | 99 | 1016.0 |
| 20260905013746 | 81 | 264 | 0.0 | 0.0 | 0.00 | 0.05 | 0.05 | 99 | 1016.3 |
| 20260905013242 | 81 | 264 | 0.0 | 0.0 | 0.00 | 0.05 | 0.05 | 99 | 1016.1 |
| 20260905012737 | 81 | 264 | 0.0 | 0.0 | 0.00 | 0.05 | 0.05 | 99 | 1016.4 |
| 20260905012233 | 81 | 262 | 0.0 | 0.0 | 0.00 | 0.05 | 0.05 | 99 | 1016.3 |
| 20260905011730 | 81 | 273 | 0.0 | 0.0 | 0.00 | 0.05 | 0.05 | 99 | 1016.4 |
| 20260905011226 | 81 | 276 | 0.0 | 0.0 | 0.00 | 0.05 | 0.05 | 99 | 1016.2 |
| 20260905010725 | 81 | 276 | 0.0 | 0.0 | 0.00 | 0.05 | 0.05 | 99 | 1016.1 |
| 20260905010221 | 81 | 276 | 0.0 | 0.0 | 0.00 | 0.05 | 0.05 | 99 | 1016.1 |
| 20260905005718 | 80 | 276 | 0.0 | 0.0 | 0.00 | 0.05 | 0.05 | 99 | 1016.2 |
| 20260905005213 | 80 | 278 | 0.0 | 0.0 | 0.00 | 0.05 | 0.05 | 99 | 1015.8 |
| 20260905004707 | 80 | 275 | 0.0 | 0.0 | 0.00 | 0.05 | 0.05 | 99 | 1016.0 |
| 20260905004202 | 80 | 275 | 0.0 | 0.0 | 0.00 | 0.05 | 0.05 | 99 | 1015.7 |
| 20260905003657 | 81 | 275 | 0.0 | 0.0 | 0.07 | 0.05 | 0.05 | 99 | 1015.7 |
| 20260905003153 | 81 | 297 | 0.0 | 0.0 | 0.07 | 0.05 | 0.05 | 99 | 1015.9 |
| 20260905002649 | 81 | 297 | 0.0 | 0.0 | 0.07 | 0.05 | 0.05 | 99 | 1015.9 |
| 20260905002148 | 81 | 299 | 0.0 | 0.0 | 0.00 | 0.04 | 0.04 | 99 | 1015.9 |
| 20260905001644 | 81 | 337 | 0.0 | 0.0 | 0.00 | 0.04 | 0.04 | 98 | 1015.6 |
| 20260905001143 | 81 | 343 | 0.0 | 0.0 | 0.00 | 0.04 | 0.04 | 98 | 1016.0 |
| 20260905000638 | 81 | 332 | 0.0 | 0.0 | 0.00 | 0.04 | 0.04 | 96 | 1015.7 |
| 20260905000134 | 82 | 327 | 0.0 | 0.0 | 0.00 | 0.04 | 0.04 | 95 | 1015.7 |
| 20260904235634 | 82 | 155 | 2.0 | 3.0 | 0.17 | 0.04 | 0.04 | 94 | 1015.8 |
| 20260904235133 | 84 | 127 | 3.0 | 3.0 | 0.17 | 0.04 | 0.04 | 91 | 1015.7 |
| 20260904234628 | 85 | 234 | 5.0 | 6.0 | 0.00 | 0.01 | 0.01 | 85 | 1015.9 |
| 20260904234124 | 85 | 212 | 2.0 | 3.0 | 0.00 | 0.01 | 0.01 | 84 | 1015.8 |
| 20260904233620 | 86 | 205 | 5.0 | 7.0 | 0.00 | 0.01 | 0.01 | 84 | 1015.8 |
| 20260904233116 | 88 | 249 | 0.0 | 0.0 | 0.00 | 0.01 | 0.01 | 89 | 1015.5 |
| 20260904232612 | 88 | 249 | 0.0 | 0.0 | 0.00 | 0.01 | 0.01 | 88 | 1015.3 |
| 20260904232108 | 88 | 248 | 0.0 | 0.0 | 0.00 | 0.01 | 0.01 | 87 | 1015.3 |
| 20260904231603 | 89 | 239 | 1.0 | 1.0 | 0.00 | 0.01 | 0.01 | 86 | 1015.2 |
| 20260904231058 | 89 | 277 | 0.0 | 0.0 | 0.00 | 0.01 | 0.01 | 86 | 1015.1 |
| 20260904230557 | 89 | 304 | 0.0 | 0.0 | 0.00 | 0.01 | 0.01 | 85 | 1015.3 |
| 20260904230053 | 89 | 309 | 0.0 | 0.0 | 0.00 | 0.01 | 0.01 | 84 | 1015.2 |
| 20260904225550 | 89 | 310 | 0.0 | 0.0 | 0.00 | 0.01 | 0.01 | 85 | 1015.1 |
| 20260904225045 | 90 | 307 | 0.0 | 0.0 | 0.00 | 0.01 | 0.01 | 84 | 1015.0 |
| 20260904224540 | 89 | 308 | 0.0 | 0.0 | 0.00 | 0.01 | 0.01 | 83 | 1015.1 |
| 20260904224040 | 90 | 302 | 0.0 | 0.0 | 0.00 | 0.01 | 0.01 | 83 | 1014.9 |
| 20260904223539 | 90 | 299 | 0.0 | 0.0 | 0.00 | 0.01 | 0.01 | 82 | 1014.8 |
| 20260904223035 | 90 | 292 | 0.0 | 0.0 | 0.00 | 0.01 | 0.01 | 81 | 1014.7 |
| 20260904222530 | 90 | 298 | 0.0 | 0.0 | 0.00 | 0.01 | 0.01 | 82 | 1014.9 |
| 20260904222026 | 89 | 297 | 0.0 | 0.0 | 0.00 | 0.01 | 0.01 | 82 | 1014.7 |
| 20260904221520 | 89 | 272 | 0.0 | 0.0 | 0.00 | 0.01 | 0.01 | 81 | 1014.8 |
| 20260904221015 | 90 | 211 | 0.0 | 1.0 | 0.00 | 0.01 | 0.01 | 80 | 1014.6 |
| 20260904220515 | 90 | 260 | 1.0 | 1.0 | 0.00 | 0.01 | 0.01 | 81 | 1014.7 |
| 20260904220011 | 91 | 264 | 1.0 | 1.0 | 0.00 | 0.01 | 0.01 | 80 | 1014.3 |
| 20260904215505 | 91 | 113 | 7.0 | 8.0 | 0.00 | 0.01 | 0.01 | 80 | 1014.3 |
| 20260904215001 | 91 | 92 | 3.0 | 8.0 | 0.00 | 0.01 | 0.01 | 79 | 1014.5 |
| 20260904214456 | 91 | 151 | 2.0 | 5.0 | 0.00 | 0.01 | 0.01 | 80 | 1014.6 |
| 20260904213950 | 91 | 112 | 1.0 | 1.0 | 0.00 | 0.01 | 0.01 | 80 | 1014.4 |
| 20260904213449 | 91 | 136 | 1.0 | 2.0 | 0.00 | 0.01 | 0.01 | 80 | 1014.7 |
| 20260904212946 | 92 | 147 | 5.0 | 8.0 | 0.00 | 0.01 | 0.01 | 79 | 1014.3 |
| 20260904212445 | 92 | 151 | 2.0 | 3.0 | 0.00 | 0.01 | 0.01 | 79 | 1014.9 |
| 20260904211940 | 92 | 205 | 4.0 | 5.0 | 0.00 | 0.01 | 0.01 | 78 | 1014.8 |
| 20260904211440 | 92 | 157 | 2.0 | 3.0 | 0.00 | 0.01 | 0.01 | 78 | 1014.7 |
| 20260904210937 | 93 | 198 | 3.0 | 5.0 | 0.00 | 0.01 | 0.01 | 78 | 1014.8 |
| 20260904210435 | 93 | 82 | 6.0 | 7.0 | 0.00 | 0.01 | 0.01 | 76 | 1015.1 |
| 20260904205931 | 93 | 104 | 8.0 | 9.0 | 0.00 | 0.01 | 0.01 | 73 | 1015.0 |
| 20260904205426 | 94 | 95 | 6.0 | 7.0 | 0.00 | 0.01 | 0.01 | 73 | 1014.9 |
| 20260904204924 | 95 | 97 | 6.0 | 9.0 | 0.00 | 0.01 | 0.01 | 72 | 1015.0 |
| 20260904204419 | 96 | 107 | 3.0 | 7.0 | 0.00 | 0.01 | 0.01 | 71 | 1014.6 |
| 20260904203915 | 96 | 129 | 2.0 | 3.0 | 0.00 | 0.01 | 0.01 | 71 | 1014.6 |
| 20260904203412 | 95 | 195 | 4.0 | 7.0 | 0.00 | 0.01 | 0.01 | 71 | 1015.0 |
| 20260904202906 | 96 | 127 | 5.0 | 8.0 | 0.00 | 0.01 | 0.01 | 71 | 1014.9 |
| 20260904202403 | 95 | 106 | 5.0 | 5.0 | 0.00 | 0.01 | 0.01 | 70 | 1014.8 |
| 20260904201858 | 96 | 206 | 6.0 | 7.0 | 0.00 | 0.01 | 0.01 | 70 | 1014.8 |
| 20260904201354 | 96 | 144 | 4.0 | 5.0 | 0.00 | 0.01 | 0.01 | 69 | 1014.6 |
| 20260904200849 | 96 | 154 | 8.0 | 10.0 | 0.00 | 0.01 | 0.01 | 69 | 1014.9 |
| 20260904200347 | 95 | 148 | 4.0 | 5.0 | 0.00 | 0.01 | 0.01 | 71 | 1014.8 |
| 20260904195842 | 96 | 201 | 3.0 | 5.0 | 0.00 | 0.01 | 0.01 | 72 | 1014.8 |
| 20260904195340 | 94 | 214 | 6.0 | 9.0 | 0.00 | 0.01 | 0.01 | 72 | 1015.1 |
| 20260904194835 | 95 | 73 | 9.0 | 11.0 | 0.00 | 0.01 | 0.01 | 71 | 1015.2 |
| 20260904194335 | 97 | 166 | 5.0 | 7.0 | 0.00 | 0.01 | 0.01 | 70 | 1014.9 |
| 20260904193830 | 97 | 178 | 3.0 | 6.0 | 0.00 | 0.01 | 0.01 | 68 | 1015.1 |
| 20260904193325 | 96 | 116 | 4.0 | 5.0 | 0.00 | 0.01 | 0.01 | 71 | 1015.4 |
| 20260904192820 | 97 | 208 | 6.0 | 8.0 | 0.00 | 0.01 | 0.01 | 69 | 1015.4 |
| 20260904192316 | 96 | 110 | 10.0 | 15.0 | 0.00 | 0.01 | 0.01 | 69 | 1015.7 |
| 20260904191813 | 96 | 216 | 4.0 | 6.0 | 0.00 | 0.01 | 0.01 | 71 | 1015.6 |
| 20260904191309 | 96 | 202 | 4.0 | 6.0 | 0.00 | 0.01 | 0.01 | 72 | 1015.7 |
| 20260904190805 | 95 | 138 | 5.0 | 6.0 | 0.00 | 0.01 | 0.01 | 74 | 1015.3 |
| 20260904190300 | 95 | 143 | 5.0 | 7.0 | 0.00 | 0.01 | 0.01 | 76 | 1015.7 |
| 20260904185756 | 95 | 209 | 3.0 | 5.0 | 0.00 | 0.01 | 0.01 | 75 | 1015.7 |
| 20260904185252 | 99 | 109 | 3.0 | 5.0 | 0.00 | 0.01 | 0.01 | 67 | 1015.5 |
| 20260904184751 | 99 | 139 | 5.0 | 6.0 | 0.00 | 0.01 | 0.01 | 59 | 1015.6 |
| 20260904184246 | 99 | 178 | 3.0 | 5.0 | 0.00 | 0.01 | 0.01 | 58 | 1015.8 |
| 20260904183742 | 98 | 197 | 3.0 | 3.0 | 0.00 | 0.01 | 0.01 | 57 | 1015.7 |
| 20260904183236 | 99 | 161 | 3.0 | 5.0 | 0.00 | 0.01 | 0.01 | 60 | 1015.9 |
| 20260904182732 | 97 | 144 | 1.0 | 3.0 | 0.00 | 0.01 | 0.01 | 60 | 1015.9 |
| 20260904182227 | 99 | 304 | 1.0 | 2.0 | 0.00 | 0.01 | 0.01 | 61 | 1016.1 |
| 20260904181722 | 99 | 149 | 1.0 | 2.0 | 0.00 | 0.01 | 0.01 | 61 | 1016.0 |
| 20260904181222 | 98 | 177 | 3.0 | 3.0 | 0.00 | 0.01 | 0.01 | 63 | 1016.2 |
| 20260904180718 | 97 | 233 | 1.0 | 1.0 | 0.00 | 0.01 | 0.01 | 65 | 1016.2 |
| 20260904180213 | 98 | 112 | 5.0 | 6.0 | 0.00 | 0.01 | 0.01 | 63 | 1016.0 |
| 20260904175712 | 98 | 207 | 3.0 | 5.0 | 0.00 | 0.01 | 0.01 | 60 | 1016.4 |
| 20260904175210 | 98 | 221 | 3.0 | 3.0 | 0.00 | 0.01 | 0.01 | 64 | 1016.5 |
| 20260904174705 | 99 | 238 | 2.0 | 3.0 | 0.00 | 0.01 | 0.01 | 60 | 1016.4 |
| 20260904174202 | 97 | 246 | 1.0 | 2.0 | 0.00 | 0.01 | 0.01 | 63 | 1016.6 |
| 20260904173656 | 99 | 239 | 3.0 | 5.0 | 0.00 | 0.01 | 0.01 | 61 | 1016.7 |
| 20260904173151 | 98 | 333 | 2.0 | 2.0 | 0.00 | 0.01 | 0.01 | 62 | 1016.6 |
| 20260904172648 | 98 | 242 | 1.0 | 1.0 | 0.00 | 0.01 | 0.01 | 64 | 1016.5 |
| 20260904172147 | 99 | 251 | 2.0 | 3.0 | 0.00 | 0.01 | 0.01 | 64 | 1016.8 |
| 20260904171643 | 98 | 176 | 3.0 | 5.0 | 0.00 | 0.01 | 0.01 | 63 | 1016.7 |
| 20260904171138 | 96 | 224 | 3.0 | 3.0 | 0.00 | 0.01 | 0.01 | 66 | 1017.0 |
| 20260904170634 | 96 | 199 | 2.0 | 2.0 | 0.00 | 0.01 | 0.01 | 67 | 1016.7 |
| 20260904170129 | 97 | 221 | 5.0 | 7.0 | 0.00 | 0.01 | 0.01 | 71 | 1017.0 |
| 20260904165627 | 97 | 213 | 4.0 | 6.0 | 0.00 | 0.01 | 0.01 | 66 | 1016.9 |
| 20260904165121 | 97 | 233 | 2.0 | 2.0 | 0.00 | 0.01 | 0.01 | 66 | 1017.1 |
| 20260904164622 | 95 | 209 | 3.0 | 6.0 | 0.00 | 0.01 | 0.01 | 73 | 1017.0 |
| 20260904164117 | 95 | 212 | 3.0 | 3.0 | 0.00 | 0.01 | 0.01 | 71 | 1017.2 |
| 20260904163612 | 97 | 247 | 4.0 | 6.0 | 0.00 | 0.01 | 0.01 | 67 | 1016.9 |
| 20260904163108 | 96 | 191 | 3.0 | 5.0 | 0.00 | 0.01 | 0.01 | 69 | 1017.2 |
| 20260904162603 | 98 | 263 | 3.0 | 5.0 | 0.00 | 0.01 | 0.01 | 68 | 1017.1 |
| 20260904162058 | 98 | 212 | 2.0 | 2.0 | 0.00 | 0.01 | 0.01 | 68 | 1017.1 |
| 20260904161558 | 96 | 262 | 3.0 | 3.0 | 0.00 | 0.01 | 0.01 | 67 | 1017.2 |
| 20260904161047 | 95 | 230 | 3.0 | 3.0 | 0.00 | 0.01 | 0.01 | 68 | 1017.5 |
| 20260904160543 | 96 | 279 | 5.0 | 6.0 | 0.00 | 0.01 | 0.01 | 68 | 1017.6 |
| 20260904160039 | 96 | 213 | 4.0 | 5.0 | 0.00 | 0.01 | 0.01 | 72 | 1017.5 |
| 20260904155538 | 96 | 211 | 4.0 | 8.0 | 0.00 | 0.01 | 0.01 | 71 | 1017.6 |
| 20260904155037 | 95 | 216 | 3.0 | 3.0 | 0.00 | 0.01 | 0.01 | 73 | 1017.7 |
| 20260904154531 | 95 | 261 | 3.0 | 3.0 | 0.00 | 0.01 | 0.01 | 73 | 1017.5 |
| 20260904154027 | 94 | 229 | 2.0 | 5.0 | 0.00 | 0.01 | 0.01 | 74 | 1017.4 |
| 20260904153526 | 95 | 224 | 7.0 | 9.0 | 0.00 | 0.01 | 0.01 | 73 | 1017.8 |
| 20260904153023 | 95 | 191 | 4.0 | 5.0 | 0.00 | 0.01 | 0.01 | 76 | 1017.6 |
| 20260904152519 | 94 | 237 | 1.0 | 2.0 | 0.00 | 0.01 | 0.01 | 77 | 1017.7 |
| 20260904152014 | 94 | 285 | 1.0 | 2.0 | 0.00 | 0.01 | 0.01 | 76 | 1017.6 |
| 20260904151509 | 94 | 249 | 4.0 | 5.0 | 0.00 | 0.01 | 0.01 | 76 | 1017.4 |
| 20260904151008 | 93 | 314 | 0.0 | 0.0 | 0.00 | 0.01 | 0.01 | 77 | 1017.4 |
| 20260904150457 | 93 | 224 | 3.0 | 3.0 | 0.00 | 0.01 | 0.01 | 79 | 1017.6 |
| 20260904145956 | 93 | 267 | 1.0 | 1.0 | 0.00 | 0.01 | 0.01 | 80 | 1017.6 |
| 20260904145452 | 94 | 264 | 1.0 | 1.0 | 0.00 | 0.01 | 0.01 | 76 | 1017.4 |
| 20260904144947 | 93 | 232 | 0.0 | 1.0 | 0.00 | 0.01 | 0.01 | 80 | 1017.3 |
| 20260904144443 | 93 | 212 | 2.0 | 2.0 | 0.00 | 0.01 | 0.01 | 80 | 1017.4 |
| 20260904143938 | 93 | 201 | 0.0 | 1.0 | 0.00 | 0.01 | 0.01 | 83 | 1017.6 |
| 20260904143434 | 93 | 289 | 3.0 | 5.0 | 0.00 | 0.01 | 0.01 | 83 | 1017.3 |
| 20260904142931 | 94 | 273 | 1.0 | 1.0 | 0.00 | 0.01 | 0.01 | 82 | 1017.2 |
| 20260904142426 | 92 | 213 | 2.0 | 3.0 | 0.00 | 0.01 | 0.01 | 84 | 1017.1 |
| 20260904141921 | 91 | 205 | 3.0 | 5.0 | 0.00 | 0.01 | 0.01 | 85 | 1017.2 |
| 20260904141416 | 91 | 277 | 3.0 | 5.0 | 0.00 | 0.01 | 0.01 | 83 | 1017.2 |
| 20260904140913 | 91 | 290 | 1.0 | 1.0 | 0.00 | 0.01 | 0.01 | 85 | 1017.0 |
| 20260904140412 | 91 | 296 | 0.0 | 0.0 | 0.00 | 0.01 | 0.01 | 85 | 1016.8 |
| 20260904135912 | 91 | 213 | 6.0 | 7.0 | 0.00 | 0.01 | 0.01 | 85 | 1017.0 |
| 20260904135411 | 90 | 205 | 1.0 | 2.0 | 0.00 | 0.01 | 0.01 | 87 | 1016.8 |
| 20260904134908 | 90 | 236 | 3.0 | 5.0 | 0.00 | 0.01 | 0.01 | 87 | 1017.0 |
| 20260904134407 | 90 | 262 | 1.0 | 1.0 | 0.00 | 0.01 | 0.01 | 87 | 1016.8 |
| 20260904133902 | 90 | 254 | 1.0 | 2.0 | 0.00 | 0.01 | 0.01 | 88 | 1016.9 |
| 20260904133357 | 89 | 266 | 0.0 | 1.0 | 0.00 | 0.01 | 0.01 | 88 | 1017.1 |
| 20260904132853 | 89 | 236 | 1.0 | 2.0 | 0.00 | 0.01 | 0.01 | 89 | 1016.8 |
| 20260904132348 | 90 | 232 | 2.0 | 5.0 | 0.00 | 0.01 | 0.01 | 88 | 1016.9 |
| 20260904131847 | 89 | 255 | 0.0 | 1.0 | 0.00 | 0.01 | 0.01 | 91 | 1017.0 |
| 20260904131343 | 88 | 202 | 0.0 | 0.0 | 0.00 | 0.01 | 0.01 | 91 | 1016.7 |
| 20260904130838 | 88 | 203 | 1.0 | 2.0 | 0.00 | 0.01 | 0.01 | 91 | 1016.8 |
| 20260904130337 | 88 | 222 | 3.0 | 5.0 | 0.00 | 0.01 | 0.01 | 91 | 1016.9 |
| 20260904125832 | 87 | 307 | 0.0 | 1.0 | 0.00 | 0.01 | 0.01 | 93 | 1016.9 |
| 20260904125329 | 86 | 237 | 1.0 | 1.0 | 0.00 | 0.01 | 0.01 | 94 | 1016.7 |
| 20260904124827 | 86 | 293 | 0.0 | 0.0 | 0.00 | 0.01 | 0.01 | 95 | 1016.7 |
| 20260904124324 | 85 | 315 | 0.0 | 0.0 | 0.00 | 0.01 | 0.01 | 97 | 1016.5 |
| 20260904123824 | 84 | 249 | 1.0 | 1.0 | 0.00 | 0.01 | 0.01 | 99 | 1016.5 |
| 20260904123319 | 83 | 259 | 0.0 | 0.0 | 0.00 | 0.01 | 0.01 | 99 | 1016.4 |
| 20260904122814 | 83 | 278 | 0.0 | 0.0 | 0.00 | 0.01 | 0.01 | 99 | 1016.3 |
| 20260904122309 | 83 | 271 | 0.0 | 1.0 | 0.00 | 0.01 | 0.01 | 99 | 1016.4 |
| 20260904121804 | 82 | 195 | 2.0 | 2.0 | 0.00 | 0.01 | 0.01 | 99 | 1016.5 |
| 20260904121300 | 82 | 234 | 0.0 | 1.0 | 0.00 | 0.01 | 0.01 | 99 | 1016.5 |
| 20260904120756 | 82 | 228 | 0.0 | 1.0 | 0.00 | 0.01 | 0.01 | 99 | 1016.3 |